{"data":{"norad_id":46074,"intl_designator":"2020-055AZ","name":"STARLINK-1549","alt_names":[],"object_type":"PAYLOAD","status":"ACTIVE","operator":null,"country":"US","launch_date":"2020-08-07","launch_site_code":"AFETR","launch_vehicle":null,"mission":null,"orbit_class":"UNKNOWN","rcs_meters":null,"size_class":null,"mass_kg":null,"dimensions":null,"purposes":["comms"],"wikipedia_slug":null,"has_3d_model":false,"image_url":null,"decayed_at":null,"tle_current":{"epoch":"2026-05-25T03:21:46.187424Z","epoch_age_seconds":56164,"freshness":"FRESH","line1":"1 46074U 20055AZ  26145.14011791  .00039706  00000+0  14333-2 0  9995","line2":"2 46074  53.0512 106.1981 0004131  61.3624 298.7790 15.28131689320928","mean_motion":15.28131689,"eccentricity":0.0004131,"inclination_deg":53.0512,"raan_deg":106.1981,"arg_perigee_deg":61.3624,"mean_anomaly_deg":298.779,"bstar":0.0014333,"rev_number":32092,"period_min":94.232716353283,"perigee_km":478.56396395905,"apogee_km":484.23131147673,"semimajor_km":6859.5346377179,"source":"CELESTRAK","updated_at":"2026-05-25T13:38:16.464093Z"}}}